Вернуться в каталог

MOLNIYA 3-47

АктивенСвязьHEO
NORAD 23642·PAYLOAD·🇷🇺 Russia

Запущен Aug 9, 1995 с Plesetsk Cosmodrome

Loading…

Ближайшие Пролёты (ближайшие 24 часа)

TLE

СвежийSource: Space-Track

Эпоха: Sep 13, 2026, 03:54 UTC

1 23642U 95042A   26256.16299845  .00000993  00000-0  00000+0 0  9992
2 23642  64.8418 260.0270 6652882 268.2735  20.5236  2.01961329228291

Отслеживайте MOLNIYA 3-47 в реальном времени с AllMySat

Download on the App Store